Home > Weather > Hartford > Past weeks

Flag for USA Weather for the Past 2 Weeks in Hartford, Connecticut, USA

Now
48 °F

Overcast.


Feels Like: 43 °F
Forecast: 43 / 53 °F
Wind: 13 mph from Northeast

Location: Hartford-Brainard Airport

Current Time: May 5, 2016 at 8:32:42 AM

Latest Report: May 5, 2016 at 7:53 AM


Visibility: 10 mi

Pressure: 29.74 "Hg

Humidity: 77%

Dew Point: 41 °F

Location of HartfordLocation

Historic Weather in Hartford — Graph

°F

Hartford Temperature Yesterday

Maximum temperature yesterday: 54 °F (at 2:53 PM)
Minimum temperature yesterday: 47 °F (at 10:53 PM)
Average temperature yesterday: 51 °F

High & Low Weather Summary for the Past Weeks

 TemperatureHumidityPressure
High80 °F (Apr 22, 12:53 PM)94% (Apr 22, 10:53 PM)30.26 "Hg (Apr 22, 10:53 PM)
Low38 °F (Apr 28, 5:53 AM)15% (Apr 24, 2:53 PM)29.72 "Hg (Apr 26, 11:53 AM)
Average54 °F59%29.98 "Hg
* Reported Apr 20 6:53 AM — May 5 6:53 AM, Hartford, Weather by CustomWeather, © 2016

Note: Actual official high and low records may vary slightly from our data, if they occured in-between our weather recording intervals... More about our weather records

Advertising

Hartford Weather History for the Previous 24 Hours

Scroll right to see more
 ConditionsComfort  
Time TempWeatherWind HumidityBarometerVisibility
6:53 AM
Thu, May 5
47 °FOvercast.12 mph77%29.73 "Hg10 mi
5:53 AM47 °FOvercast.14 mph77%29.72 "Hg10 mi
4:53 AM47 °FOvercast.13 mph77%29.73 "Hg10 mi
3:53 AM47 °FOvercast.12 mph77%29.73 "Hg10 mi
2:53 AM47 °FOvercast.10 mph77%29.75 "Hg10 mi
1:53 AM47 °FOvercast.13 mph77%29.76 "Hg10 mi
12:53 AM47 °FOvercast.12 mph80%29.78 "Hg10 mi
11:53 PM
Wed, May 4
47 °FOvercast.12 mph80%29.78 "Hg10 mi
10:53 PM47 °FMostly cloudy.12 mph83%29.78 "Hg10 mi
9:53 PM48 °FLight rain. Overcast.7 mph83%29.79 "Hg10 mi
8:53 PM48 °FLight rain. Overcast.10 mph80%29.79 "Hg9 mi
7:53 PM49 °FOvercast.12 mph77%29.77 "Hg10 mi
6:53 PM51 °FOvercast.10 mph69%29.78 "Hg10 mi
5:53 PM52 °FOvercast.9 mph66%29.76 "Hg10 mi
4:53 PM52 °FOvercast.13 mph64%29.78 "Hg10 mi
3:53 PM54 °FMostly cloudy.10 mph64%29.77 "Hg10 mi
2:53 PM54 °FOvercast.7 mph69%29.77 "Hg10 mi
1:53 PM53 °FOvercast.9 mph69%29.79 "Hg10 mi
12:53 PM53 °FOvercast.10 mph69%29.82 "Hg10 mi
11:53 AM53 °FOvercast.7 mph69%29.83 "Hg10 mi
10:53 AM52 °FOvercast.6 mph69%29.85 "Hg10 mi
10:03 AM52 °FMostly cloudy.7 mph72%29.84 "Hg10 mi
9:53 AM52 °FMore clouds than sun.5 mph69%29.84 "Hg10 mi
8:53 AM51 °FOvercast.7 mph71%29.84 "Hg10 mi
Weather by CustomWeather, © 2016

See weather overviewHow to use our weather pages